When you browse on this site, cookies collect data to enhance your experience and personalize the content and advertising you see.
Visit our Privacy Policy to learn more. By continuing to use the site, you agree to this use of cookies and data.
  • In Lithuania
  • List of Countries
  • For 7 days
  • Water Temperature
  • Weather Map
  • Weather Widgets
  • user-avatar
    Login

    Hourly Weather Kapan

    Today, 29 May, Friday

    Time Temperature Precipitation Wind Pressure Humidity
    00:00 +21°C° 0 mm 1 mps 684 mmHg 64%
    01:00 +21°C° 0 mm 1 mps 684 mmHg 62%
    02:00 +20°C° 0 mm 1 mps 683 mmHg 59%
    03:00 +20°C° 0 mm 1 mps 683 mmHg 57%
    04:00 +21°C° 0 mm 1 mps 683 mmHg 57%
    05:00 +22°C° 0 mm 1 mps 683 mmHg 57%
    06:00 +23°C° 0 mm 1 mps 684 mmHg 56%
    07:00 +25°C° 0 mm 1 mps 684 mmHg 53%
    08:00 +27°C° 0 mm 1 mps 684 mmHg 50%
    09:00 +28°C° 0 mm 2 mps 684 mmHg 47%
    10:00 +29°C° 0 mm 2 mps 683 mmHg 46%
    11:00 +30°C° 0 mm 2 mps 683 mmHg 44%
    12:00 +31°C° 0 mm 3 mps 683 mmHg 43%
    13:00 +31°C° 0 mm 3 mps 682 mmHg 43%
    14:00 +31°C° 0 mm 3 mps 682 mmHg 43%
    15:00 +31°C° 0 mm 3 mps 681 mmHg 42%
    16:00 +30°C° 0 mm 2 mps 681 mmHg 47%
    17:00 +29°C° 0 mm 2 mps 681 mmHg 52%
    18:00 +28°C° 0 mm 1 mps 681 mmHg 57%
    19:00 +26°C° 0 mm 2 mps 681 mmHg 57%
    20:00 +24°C° 0 mm 2 mps 681 mmHg 56%
    21:00 +21°C° 0 mm 2 mps 681 mmHg 55%
    22:00 +21°C° 0 mm 2 mps 681 mmHg 53%
    23:00 +20°C° 0 mm 2 mps 681 mmHg 51%

    Tomorrow, 30 May, Saturday

    Time Temperature Precipitation Wind Pressure Humidity
    00:00 +20°C° 0 mm 2 mps 680 mmHg 49%
    01:00 +20°C° 0 mm 2 mps 680 mmHg 47%
    02:00 +20°C° 0 mm 2 mps 680 mmHg 45%
    03:00 +19°C° 0 mm 2 mps 680 mmHg 43%
    04:00 +20°C° 0 mm 2 mps 681 mmHg 45%
    05:00 +21°C° 0 mm 2 mps 681 mmHg 47%
    06:00 +21°C° 0 mm 2 mps 681 mmHg 49%
    07:00 +24°C° 0 mm 2 mps 682 mmHg 46%
    08:00 +26°C° 0 mm 2 mps 682 mmHg 42%
    09:00 +28°C° 0 mm 2 mps 682 mmHg 39%
    10:00 +28°C° 0 mm 2 mps 682 mmHg 40%
    11:00 +29°C° 0 mm 3 mps 682 mmHg 40%
    12:00 +29°C° 0 mm 4 mps 682 mmHg 41%
    13:00 +29°C° 0.1 mm 4 mps 682 mmHg 45%
    14:00 +29°C° 0.1 mm 4 mps 682 mmHg 48%
    15:00 +29°C° 0.1 mm 4 mps 682 mmHg 51%
    16:00 +27°C° 0.1 mm 3 mps 682 mmHg 57%
    17:00 +26°C° 0.1 mm 3 mps 682 mmHg 63%
    18:00 +25°C° 0.1 mm 3 mps 682 mmHg 69%
    19:00 +23°C° 0 mm 2 mps 682 mmHg 74%
    20:00 +21°C° 0 mm 2 mps 682 mmHg 79%
    21:00 +20°C° 0 mm 1 mps 682 mmHg 84%
    22:00 +20°C° 0 mm 1 mps 682 mmHg 84%
    23:00 +19°C° 0 mm 1 mps 683 mmHg 83%

    Day after tomorrow, 31 May, Sunday

    Time Temperature Precipitation Wind Pressure Humidity
    00:00 +19°C° 0 mm 1 mps 683 mmHg 83%
    01:00 +19°C° 0 mm 1 mps 683 mmHg 83%
    02:00 +18°C° 0 mm 1 mps 683 mmHg 84%
    03:00 +15°C° 0 mm 0 mps 683 mmHg 85%
    04:00 +16°C° 0 mm 0 mps 683 mmHg 83%
    05:00 +17°C° 0 mm 0 mps 684 mmHg 82%
    06:00 +17°C° 0 mm 0 mps 684 mmHg 81%
    07:00 +21°C° 0 mm 1 mps 684 mmHg 77%
    08:00 +22°C° 0 mm 1 mps 684 mmHg 73%
    09:00 +23°C° 0 mm 2 mps 685 mmHg 69%
    10:00 +24°C° 0 mm 2 mps 684 mmHg 65%
    11:00 +25°C° 0 mm 2 mps 684 mmHg 61%
    12:00 +26°C° 0 mm 3 mps 684 mmHg 57%
    13:00 +26°C° 0.1 mm 3 mps 684 mmHg 55%
    14:00 +27°C° 0.1 mm 3 mps 683 mmHg 53%
    15:00 +27°C° 0.1 mm 3 mps 683 mmHg 51%
    16:00 +26°C° 0 mm 3 mps 683 mmHg 55%
    17:00 +25°C° 0 mm 2 mps 683 mmHg 59%
    18:00 +25°C° 0 mm 2 mps 683 mmHg 63%
    19:00 +23°C° 0 mm 2 mps 683 mmHg 68%
    20:00 +21°C° 0 mm 1 mps 683 mmHg 72%
    21:00 +19°C° 0 mm 1 mps 683 mmHg 77%
    22:00 +19°C° 0 mm 1 mps 683 mmHg 77%
    23:00 +19°C° 0 mm 1 mps 682 mmHg 78%

    1 June, Monday

    Time Temperature Precipitation Wind Pressure Humidity
    00:00 +18°C° 0 mm 1 mps 682 mmHg 78%
    01:00 +18°C° 0 mm 1 mps 682 mmHg 79%
    02:00 +18°C° 0 mm 1 mps 682 mmHg 79%
    03:00 +16°C° 0 mm 1 mps 682 mmHg 80%
    04:00 +18°C° 0 mm 1 mps 682 mmHg 77%
    05:00 +19°C° 0 mm 1 mps 683 mmHg 75%
    06:00 +20°C° 0 mm 1 mps 683 mmHg 72%
    07:00 +22°C° 0 mm 1 mps 683 mmHg 67%
    08:00 +23°C° 0 mm 1 mps 683 mmHg 61%
    09:00 +25°C° 0 mm 2 mps 683 mmHg 56%
    10:00 +26°C° 0 mm 2 mps 683 mmHg 53%
    11:00 +27°C° 0 mm 2 mps 683 mmHg 49%
    12:00 +28°C° 0 mm 2 mps 683 mmHg 46%
    13:00 +29°C° 0.1 mm 2 mps 683 mmHg 45%
    14:00 +29°C° 0.1 mm 3 mps 682 mmHg 44%
    15:00 +29°C° 0.1 mm 3 mps 682 mmHg 43%
    16:00 +28°C° 0.1 mm 2 mps 682 mmHg 49%
    17:00 +27°C° 0.1 mm 2 mps 681 mmHg 54%
    18:00 +26°C° 0.1 mm 2 mps 681 mmHg 59%
    19:00 +24°C° 0 mm 2 mps 681 mmHg 61%
    20:00 +21°C° 0 mm 2 mps 681 mmHg 64%
    21:00 +20°C° 0 mm 1 mps 681 mmHg 66%
    22:00 +20°C° 0 mm 1 mps 681 mmHg 63%
    23:00 +19°C° 0 mm 2 mps 681 mmHg 60%

    2 June, Tuesday

    Time Temperature Precipitation Wind Pressure Humidity
    00:00 +19°C° 0 mm 2 mps 681 mmHg 57%
    01:00 +19°C° 0 mm 2 mps 681 mmHg 53%
    02:00 +19°C° 0 mm 2 mps 681 mmHg 50%
    03:00 +19°C° 0 mm 2 mps 680 mmHg 46%
    04:00 +20°C° 0 mm 2 mps 681 mmHg 47%
    05:00 +20°C° 0 mm 2 mps 681 mmHg 47%
    06:00 +21°C° 0 mm 2 mps 681 mmHg 48%
    07:00 +24°C° 0 mm 2 mps 682 mmHg 43%
    08:00 +27°C° 0 mm 2 mps 682 mmHg 38%
    09:00 +29°C° 0 mm 2 mps 682 mmHg 33%
    10:00 +30°C° 0 mm 2 mps 682 mmHg 30%
    11:00 +31°C° 0 mm 3 mps 682 mmHg 28%
    12:00 +34°C° 0 mm 4 mps 682 mmHg 26%
    13:00 +34°C° 0 mm 4 mps 682 mmHg 25%
    14:00 +34°C° 0 mm 4 mps 682 mmHg 25%
    15:00 +34°C° 0 mm 4 mps 682 mmHg 25%
    16:00 +33°C° 0 mm 3 mps 681 mmHg 32%
    17:00 +30°C° 0 mm 2 mps 681 mmHg 40%
    18:00 +28°C° 0 mm 1 mps 681 mmHg 48%
    19:00 +26°C° 0 mm 1 mps 681 mmHg 50%
    20:00 +25°C° 0 mm 1 mps 681 mmHg 52%
    21:00 +23°C° 0 mm 1 mps 681 mmHg 54%
    22:00 +22°C° 0 mm 1 mps 681 mmHg 55%
    23:00 +21°C° 0 mm 1 mps 681 mmHg 56%

    3 June, Wednesday

    Time Temperature Precipitation Wind Pressure Humidity
    00:00 +20°C° 0 mm 1 mps 681 mmHg 57%
    01:00 +20°C° 0 mm 1 mps 681 mmHg 56%
    02:00 +20°C° 0 mm 1 mps 681 mmHg 54%
    03:00 +19°C° 0 mm 1 mps 681 mmHg 53%
    04:00 +20°C° 0 mm 1 mps 682 mmHg 53%
    05:00 +21°C° 0 mm 1 mps 682 mmHg 54%
    06:00 +22°C° 0 mm 1 mps 682 mmHg 55%
    07:00 +23°C° 0 mm 1 mps 683 mmHg 51%
    08:00 +25°C° 0 mm 1 mps 683 mmHg 48%
    09:00 +27°C° 0 mm 2 mps 683 mmHg 44%
    10:00 +28°C° 0 mm 2 mps 683 mmHg 42%
    11:00 +29°C° 0 mm 2 mps 683 mmHg 41%
    12:00 +30°C° 0 mm 2 mps 683 mmHg 39%
    13:00 +31°C° 0 mm 2 mps 683 mmHg 38%
    14:00 +31°C° 0 mm 2 mps 683 mmHg 37%
    15:00 +32°C° 0 mm 2 mps 682 mmHg 36%
    16:00 +31°C° 0 mm 2 mps 682 mmHg 42%
    17:00 +30°C° 0 mm 2 mps 682 mmHg 47%
    18:00 +29°C° 0 mm 1 mps 682 mmHg 53%
    19:00 +27°C° 0 mm 1 mps 682 mmHg 53%
    20:00 +25°C° 0 mm 2 mps 682 mmHg 53%
    21:00 +23°C° 0 mm 2 mps 682 mmHg 52%
    22:00 +23°C° 0 mm 2 mps 682 mmHg 48%
    23:00 +23°C° 0 mm 2 mps 682 mmHg 44%
    Show more